LOG941F EGHI-EGPD

Flight info

Callsign LOG941F
Flight time N/A
Altitude 34000
Route NORRY Q41 SILVA UM605 DTY DCT ALASO DCT MADAD P18 EPCAN
Aircraft E145/M-SDFGIRW/S

Departure

Time N/A
Airport Southampton Airport (EGHI)

Arrival

Time 2026-05-06 08:36
Airport Aberdeen International Airport (EGPD)
Time Latitude Longitude Altitude Speed Heading
2026-05-06 08:33 57.24120 -2.34267 1925 ft 131 kts 82°
2026-05-06 08:33 57.24149 -2.32597 1699 ft 130 kts 95°
2026-05-06 08:33 57.24094 -2.30979 1586 ft 127 kts 94°
2026-05-06 08:33 57.24030 -2.29301 1569 ft 134 kts 94°
2026-05-06 08:34 57.23963 -2.27587 1503 ft 130 kts 95°
2026-05-06 08:34 57.23726 -2.24326 1062 ft 125 kts 100°
2026-05-06 08:34 57.23499 -2.22803 858 ft 120 kts 117°
2026-05-06 08:35 57.22954 -2.21631 751 ft 129 kts 148°
2026-05-06 08:35 57.22129 -2.21058 534 ft 123 kts 164°
2026-05-06 08:35 57.21310 -2.20587 324 ft 128 kts 160°
2026-05-06 08:35 57.20494 -2.19996 204 ft 116 kts 158°
2026-05-06 08:36 57.19903 -2.19564 206 ft 69 kts 158°
2026-05-06 08:36 57.19557 -2.19309 214 ft 32 kts 160°
2026-05-06 08:36 57.19437 -2.19268 218 ft 13 kts 218°
2026-05-06 08:36 57.19441 -2.19392 223 ft 10 kts 321°
2026-05-06 08:37 57.19505 -2.19488 223 ft 12 kts 319°
2026-05-06 08:37 57.19582 -2.19609 220 ft 16 kts 320°
2026-05-06 08:37 57.19688 -2.19733 218 ft 19 kts 341°
2026-05-06 08:37 57.19814 -2.19821 214 ft 21 kts 339°
2026-05-06 08:38 57.19933 -2.19981 215 ft 20 kts 315°
2026-05-06 08:38 57.19970 -2.20044 215 ft 0 kts 316°
2026-05-06 08:38 57.19975 -2.20060 215 ft 1 kts 292°
2026-05-06 08:38 57.19969 -2.20110 216 ft 5 kts 248°
2026-05-06 08:39 57.19958 -2.20161 218 ft 3 kts 249°
2026-05-06 08:39 57.19957 -2.20169 218 ft 0 kts 249°